TimePST,TemperatureF,Dew PointF,Humidity,Sea Level PressureIn,VisibilityMPH,Wind Direction,Wind SpeedMPH,Gust SpeedMPH,PrecipitationIn,Events,Conditions,WindDirDegrees,DateUTC
12:53 AM,42.1,19.9,41,29.81,10.0,SSW,12.7,27.6,N/A,,Overcast,210,2012-03-06 08:53:00
1:34 AM,37.4,23.0,56,29.88,3.0,SSW,16.1,27.6,N/A,,Haze,200,2012-03-06 09:34:00
1:53 AM,37.0,25.0,62,29.77,3.0,SSW,13.8,24.2,0.00,Snow,Light Snow,200,2012-03-06 09:53:00
2:00 AM,35.6,26.6,70,29.86,1.8,SSW,19.6,26.5,0.00,Snow,Light Snow,200,2012-03-06 10:00:00
2:11 AM,35.6,26.6,70,29.85,2.0,SSW,12.7,23.0,0.00,Snow,Light Snow,200,2012-03-06 10:11:00
2:21 AM,35.6,26.6,70,29.85,3.0,SSW,13.8,23.0,0.00,Snow,Light Snow,200,2012-03-06 10:21:00
2:53 AM,35.1,25.0,67,29.70,2.5,SSW,16.1,25.3,0.01,Snow,Light Snow,200,2012-03-06 10:53:00
3:09 AM,35.6,24.8,65,29.78,4.0,SSW,16.1,27.6,0.01,Snow,Light Snow,200,2012-03-06 11:09:00
3:46 AM,35.6,23.0,60,29.76,1.8,SSW,16.1,34.5,0.02,Snow,Light Snow,200,2012-03-06 11:46:00
3:53 AM,35.1,24.1,64,29.67,1.8,SSW,17.3,26.5,0.03,Snow,Light Snow,200,2012-03-06 11:53:00
4:20 AM,33.8,24.8,70,29.72,2.0,SSW,15.0,27.6,0.01,Snow,Light Snow,200,2012-03-06 12:20:00
4:27 AM,33.8,26.6,75,29.72,1.2,SSW,8.1,24.2,0.01,Snow,Light Snow,210,2012-03-06 12:27:00
4:36 AM,32.0,26.6,80,29.70,0.8,South,17.3,23.0,0.02,Snow,Light Snow,190,2012-03-06 12:36:00
4:41 AM,32.0,28.4,87,29.70,0.5,SSW,15.0,-,0.02,Fog-Snow,Snow,200,2012-03-06 12:41:00
4:53 AM,32.0,28.0,85,29.63,0.5,SSW,8.1,-,0.03,Fog-Snow,Snow,210,2012-03-06 12:53:00
5:33 AM,33.8,26.6,75,29.69,1.8,SSW,8.1,17.3,0.04,Snow,Light Snow,210,2012-03-06 13:33:00
5:40 AM,33.8,26.6,75,29.69,2.5,SSW,8.1,21.9,0.04,Snow,Light Snow,210,2012-03-06 13:40:00
5:46 AM,33.8,26.6,75,29.69,3.0,Variable,6.9,21.9,0.04,Snow,Light Snow,0,2012-03-06 13:46:00
5:53 AM,33.1,23.0,66,29.62,8.0,Variable,6.9,20.7,0.04,,Overcast,0,2012-03-06 13:53:00
6:05 AM,33.8,21.2,60,29.69,5.0,SSW,15.0,25.3,0.00,Snow,Light Snow,200,2012-03-06 14:05:00
6:13 AM,32.0,21.2,64,29.68,3.0,SW,10.4,25.3,0.00,Snow,Light Snow,220,2012-03-06 14:13:00
6:18 AM,32.0,21.2,64,29.67,5.0,SSW,9.2,20.7,0.00,Snow,Light Snow,200,2012-03-06 14:18:00
6:36 AM,32.0,19.4,60,29.68,2.5,SSW,15.0,27.6,0.00,Rain,Light Rain,210,2012-03-06 14:36:00
6:38 AM,32.0,19.4,60,29.68,1.0,SSW,13.8,27.6,0.00,Snow,Light Snow,210,2012-03-06 14:38:00
6:45 AM,28.4,24.8,86,29.67,0.2,SSW,11.5,25.3,0.01,Snow,Heavy Snow,210,2012-03-06 14:45:00
6:48 AM,28.4,24.8,86,29.67,0.2,SSW,9.2,21.9,0.01,Snow,Heavy Snow,200,2012-03-06 14:48:00
6:53 AM,30.0,24.1,79,29.61,0.2,Variable,6.9,19.6,0.01,Snow,Heavy Snow,0,2012-03-06 14:53:00
7:00 AM,30.2,24.8,80,29.67,0.5,South,9.2,17.3,0.00,Snow,Snow,190,2012-03-06 15:00:00
7:09 AM,30.2,24.8,80,29.65,0.5,Variable,5.8,-,0.00,Snow,Snow,0,2012-03-06 15:09:00
7:13 AM,30.2,24.8,80,29.66,1.0,Calm,Calm,-,0.00,Snow,Light Snow,0,2012-03-06 15:13:00
7:17 AM,30.2,23.0,75,29.66,4.0,South,12.7,31.1,0.00,Snow,Light Snow,190,2012-03-06 15:17:00
7:20 AM,30.2,21.2,69,29.66,0.5,South,17.3,34.5,0.00,Snow,Snow,190,2012-03-06 15:20:00
7:27 AM,28.4,23.0,80,29.67,0.2,Variable,5.8,34.5,0.01,Snow,Heavy Snow,0,2012-03-06 15:27:00
7:53 AM,28.4,24.8,86,29.67,0.2,Variable,3.5,-,N/A,Snow,Heavy Snow,0,2012-03-06 15:53:00
8:19 AM,30.2,21.2,69,29.65,2.5,South,5.8,-,0.00,Snow,Light Snow,190,2012-03-06 16:19:00
8:21 AM,30.2,21.2,69,29.65,4.0,SSW,6.9,-,0.00,Snow,Light Snow,200,2012-03-06 16:21:00
8:29 AM,30.2,19.4,64,29.66,9.0,South,5.8,20.7,0.00,,Overcast,180,2012-03-06 16:29:00
8:42 AM,30.2,15.8,55,29.68,10.0,Variable,5.8,-,0.00,,Mostly Cloudy,0,2012-03-06 16:42:00
8:53 AM,30.0,14.0,51,29.63,10.0,South,12.7,18.4,0.00,,Mostly Cloudy,180,2012-03-06 16:53:00
9:26 AM,28.4,19.4,69,29.68,4.0,Calm,Calm,-,0.00,Snow,Light Snow,0,2012-03-06 17:26:00
9:32 AM,28.4,21.2,74,29.69,1.8,Calm,Calm,-,0.00,Snow,Light Snow,0,2012-03-06 17:32:00
9:48 AM,28.4,19.4,69,29.70,3.0,Calm,Calm,-,0.01,Snow,Light Snow,0,2012-03-06 17:48:00
9:53 AM,28.9,19.0,67,29.66,2.5,Calm,Calm,-,0.01,Snow,Light Snow,0,2012-03-06 17:53:00
10:02 AM,28.4,17.6,64,29.70,1.2,Calm,Calm,-,0.00,Snow,Light Snow,0,2012-03-06 18:02:00
10:12 AM,28.4,17.6,64,29.71,3.0,Calm,Calm,-,0.00,Snow,Light Snow,0,2012-03-06 18:12:00
10:20 AM,28.4,17.6,64,29.71,9.0,Calm,Calm,-,N/A,,Overcast,0,2012-03-06 18:20:00
10:42 AM,26.6,17.6,69,29.73,2.5,NNE,10.4,25.3,0.00,Snow,Light Snow,20,2012-03-06 18:42:00
10:50 AM,24.8,17.6,74,29.74,0.8,NNE,8.1,18.4,0.00,Snow,Light Snow,20,2012-03-06 18:50:00
10:51 AM,25.0,18.0,75,29.71,0.8,NNE,8.1,18.4,0.00,Snow,Light Snow,20,2012-03-06 18:51:00
11:06 AM,24.8,19.4,80,29.75,0.2,NNE,6.9,-,0.00,Snow,Heavy Snow,20,2012-03-06 19:06:00
11:33 AM,24.8,17.6,74,29.76,1.0,NNE,9.2,-,0.01,Snow,Light Snow,20,2012-03-06 19:33:00
11:45 AM,24.8,15.8,69,29.76,3.0,Variable,6.9,-,0.01,Snow,Light Snow,0,2012-03-06 19:45:00
11:53 AM,26.1,16.0,66,29.74,4.0,Variable,4.6,-,0.01,Snow,Light Snow,0,2012-03-06 19:53:00
12:00 PM,26.6,15.8,64,29.76,1.8,Variable,6.9,-,0.00,Snow,Light Snow,0,2012-03-06 20:00:00
12:16 PM,24.8,15.8,69,29.76,3.0,NNE,5.8,-,0.00,Snow,Light Snow,20,2012-03-06 20:16:00
12:26 PM,26.6,17.6,69,29.76,1.2,Variable,3.5,-,0.00,Snow,Light Snow,0,2012-03-06 20:26:00
12:33 PM,24.8,19.4,80,29.76,0.2,NNE,9.2,-,0.00,Snow,Heavy Snow,30,2012-03-06 20:33:00
12:49 PM,26.6,15.8,64,29.75,1.5,NNE,9.2,17.3,0.00,Snow,Light Snow,20,2012-03-06 20:49:00
12:53 PM,27.0,14.0,58,29.72,4.0,NNE,9.2,17.3,0.00,Snow,Light Snow,20,2012-03-06 20:53:00
1:05 PM,26.6,17.6,69,29.76,1.8,Variable,3.5,-,0.00,Snow,Light Snow,0,2012-03-06 21:05:00
1:27 PM,24.8,17.6,74,29.75,0.8,Calm,Calm,-,0.00,Snow,Light Snow,0,2012-03-06 21:27:00
1:49 PM,26.6,15.8,64,29.76,2.0,Variable,5.8,-,0.00,Snow,Light Snow,0,2012-03-06 21:49:00
1:50 PM,26.1,16.0,66,29.75,2.5,Variable,5.8,-,0.00,Snow,Light Snow,0,2012-03-06 21:50:00
1:55 PM,26.6,14.0,59,29.76,5.0,Variable,5.8,-,0.00,Snow,Light Snow,0,2012-03-06 21:55:00
2:14 PM,26.6,12.2,55,29.76,10.0,Variable,5.8,16.1,0.00,,Overcast,0,2012-03-06 22:14:00
2:53 PM,26.6,10.4,51,29.77,10.0,NNE,13.8,21.9,N/A,,Overcast,20,2012-03-06 22:53:00
3:53 PM,25.0,12.9,60,29.80,10.0,Variable,6.9,18.4,N/A,,Overcast,0,2012-03-06 23:53:00
4:53 PM,24.1,9.0,53,29.83,10.0,Variable,5.8,20.7,N/A,,Overcast,0,2012-03-07 00:53:00
7:53 PM,19.9,1.9,46,29.91,10.0,NE,17.3,24.2,N/A,,Partly Cloudy,50,2012-03-07 03:53:00
8:53 PM,19.0,3.9,52,29.93,10.0,North,5.8,-,N/A,,Scattered Clouds,10,2012-03-07 04:53:00
9:53 PM,19.0,6.1,57,29.97,10.0,NE,16.1,21.9,N/A,,Overcast,40,2012-03-07 05:53:00
10:53 PM,18.0,6.1,60,30.01,10.0,North,13.8,23.0,N/A,,Overcast,10,2012-03-07 06:53:00
11:53 PM,17.1,1.9,52,30.01,10.0,North,10.4,19.6,0.00,,Mostly Cloudy,10,2012-03-07 07:53:00